DW2819 Weather Reports


Display with metric or nautical units.
time (UTC)temp
F
wind
direction
speed
MPH
gust
MPH
rain 1hr
in
rain 24hr
in
rain mn
in
humidity
%
barometer
mb
20260831163814 64 305 1.0 3.0 0.00 0.39 0.39 92 1006.3
20260831163317 64 8 1.0 3.0 0.00 0.39 0.39 92 1006.2
20260831162816 64 28 1.0 4.0 0.00 0.39 0.39 92 1006.1
20260831162319 64 357 0.0 4.0 0.00 0.39 0.39 92 1006.0
20260831161814 64 6 1.0 3.0 0.00 0.39 0.39 92 1006.1
20260831161318 64 18 1.0 3.0 0.00 0.39 0.39 92 1006.1
20260831160813 64 278 1.0 5.0 0.00 0.39 0.39 92 1006.0
20260831160320 64 72 2.0 5.0 0.00 0.39 0.39 92 1005.9
20260831155813 64 23 0.0 3.0 0.00 0.39 0.39 92 1005.9
20260831155319 64 0 1.0 5.0 0.00 0.39 0.39 92 1005.9
20260831154816 64 0 1.0 5.0 0.00 0.39 0.39 92 1005.8
20260831154318 64 0 1.0 3.0 0.00 0.39 0.39 92 1005.8
20260831153319 64 0 1.0 3.0 0.00 0.39 0.39 93 1005.9
20260831152320 64 274 0.0 2.0 0.00 0.39 0.39 92 1005.9
20260831151819 64 17 0.0 3.0 0.00 0.39 0.39 92 1005.8
20260831151321 64 169 1.0 3.0 0.00 0.39 0.39 92 1005.8
20260831150813 64 85 1.0 4.0 0.00 0.39 0.39 92 1005.8
20260831150319 65 227 2.0 4.0 0.00 0.39 0.39 92 1005.8
20260831145814 65 11 0.0 3.0 0.00 0.39 0.39 92 1005.7
20260831144813 65 65 1.0 4.0 0.00 0.39 0.39 92 1005.8
20260831144317 65 336 1.0 6.0 0.00 0.39 0.39 92 1005.8
20260831143813 65 172 2.0 6.0 0.00 0.39 0.39 92 1005.6
20260831143318 65 0 0.0 2.0 0.00 0.39 0.39 92 1005.6
20260831142813 65 140 1.0 2.0 0.00 0.39 0.39 92 1005.6
20260831142317 66 6 1.0 2.0 0.00 0.39 0.39 92 1005.5
20260831141816 66 58 1.0 2.0 0.00 0.39 0.39 92 1005.5
20260831141314 66 20 1.0 3.0 0.00 0.39 0.39 91 1005.5
20260831140816 66 55 1.0 4.0 0.00 0.39 0.39 92 1005.4
20260831140320 66 27 1.0 4.0 0.00 0.39 0.39 91 1005.5
20260831135817 66 94 1.0 3.0 0.00 0.39 0.39 92 1005.4
20260831135317 66 7 1.0 3.0 0.00 0.39 0.39 92 1005.4
20260831134814 66 6 0.0 3.0 0.00 0.39 0.39 92 1005.3
20260831134319 66 52 0.0 3.0 0.00 0.39 0.39 92 1005.3
20260831133813 66 348 1.0 3.0 0.00 0.39 0.39 92 1005.2
20260831132320 66 278 1.0 5.0 0.00 0.39 0.39 92 1005.3
20260831131813 66 307 1.0 5.0 0.00 0.39 0.39 93 1005.2
20260831130815 66 75 0.0 4.0 0.00 0.39 0.39 92 1005.0
20260831130321 66 0 1.0 4.0 0.00 0.39 0.39 92 1005.1
20260831125813 66 4 0.0 5.0 0.00 0.39 0.39 92 1005.1
20260831125314 66 334 2.0 5.0 0.00 0.39 0.39 92 1005.1
20260831124816 66 226 1.0 6.0 0.00 0.39 0.39 92 1005.0
20260831123813 66 323 1.0 3.0 0.00 0.39 0.39 92 1005.0
20260831123315 66 21 1.0 4.0 0.00 0.39 0.39 93 1005.0
20260831122309 66 97 1.0 4.0 0.00 0.39 0.39 92 1004.9
20260831121810 66 353 1.0 5.0 0.00 0.39 0.39 93 1004.8
20260831121308 66 13 2.0 5.0 0.00 0.39 0.39 93 1004.9
20260831120806 66 276 1.0 3.0 0.00 0.39 0.39 93 1004.8
20260831120307 66 312 1.0 4.0 0.00 0.39 0.39 94 1004.9
20260831115805 66 0 2.0 4.0 0.00 0.39 0.39 94 1005.0
20260831115306 66 133 1.0 3.0 0.00 0.39 0.39 93 1004.9
20260831114301 66 103 2.0 4.0 0.00 0.39 0.39 94 1004.9
20260831113807 66 51 0.0 3.0 0.00 0.39 0.39 94 1004.9
20260831113250 66 31 0.0 3.0 0.00 0.39 0.39 93 1004.9
20260831112751 66 1 1.0 5.0 0.00 0.39 0.39 94 1004.8
20260831112251 66 11 2.0 5.0 0.00 0.39 0.39 94 1004.8
20260831111749 66 252 1.0 3.0 0.00 0.39 0.39 94 1004.8
20260831111250 66 47 0.0 3.0 0.00 0.39 0.39 95 1004.7
20260831110734 66 31 1.0 3.0 0.00 0.39 0.39 95 1004.7
20260831110231 66 18 1.0 2.0 0.00 0.39 0.39 95 1004.6
20260831105226 65 4 2.0 7.0 0.00 0.39 0.39 95 1004.6
20260831104712 65 16 1.0 4.0 0.00 0.39 0.39 95 1004.6
20260831103719 65 23 1.0 3.0 0.00 0.39 0.39 95 1004.5
20260831103221 65 338 1.0 3.0 0.00 0.39 0.39 95 1004.5
20260831102717 65 123 1.0 3.0 0.00 0.39 0.39 95 1004.6
20260831102215 65 147 2.0 3.0 0.00 0.39 0.39 96 1004.5
20260831101716 65 337 1.0 3.0 0.00 0.39 0.39 95 1004.4
20260831101214 66 21 1.0 2.0 0.00 0.39 0.39 96 1004.4
20260831100712 65 83 1.0 3.0 0.00 0.39 0.39 96 1004.4
20260831100214 65 117 1.0 3.0 0.00 0.39 0.39 96 1004.3
20260831095714 65 38 1.0 3.0 0.00 0.39 0.39 96 1004.4
20260831095219 65 99 1.0 2.0 0.00 0.39 0.39 96 1004.4
20260831094713 65 138 1.0 2.0 0.00 0.39 0.39 96 1004.4
20260831094214 64 14 1.0 2.0 0.01 0.39 0.39 96 1004.4
20260831093713 64 16 0.0 3.0 0.01 0.39 0.39 96 1004.3
20260831093214 64 0 1.0 3.0 0.01 0.39 0.39 96 1004.3
20260831092715 64 337 0.0 3.0 0.02 0.39 0.39 96 1004.3
20260831092214 64 20 1.0 4.0 0.02 0.39 0.39 96 1004.2
20260831091713 64 154 1.0 4.0 0.04 0.39 0.39 96 1004.2
20260831091214 64 45 2.0 4.0 0.07 0.39 0.39 96 1004.1
20260831090712 64 69 1.0 3.0 0.09 0.39 0.39 96 1004.2
20260831090214 63 32 1.0 3.0 0.12 0.39 0.39 96 1004.1
20260831085712 64 92 1.0 3.0 0.13 0.28 0.39 96 1004.1
20260831085214 63 171 1.0 3.0 0.13 0.28 0.39 96 1004.0
20260831084215 63 4 2.0 6.0 0.13 0.28 0.39 96 1004.1
20260831083714 63 90 2.0 4.0 0.14 0.28 0.39 96 1004.0
20260831083217 63 137 0.0 4.0 0.15 0.28 0.39 96 1004.2
20260831082713 63 68 1.0 7.0 0.16 0.28 0.38 96 1004.1
20260831082214 63 79 1.0 7.0 0.15 0.28 0.37 96 1004.2
20260831081713 63 213 1.0 2.0 0.15 0.28 0.35 96 1004.3
20260831081219 63 148 0.0 2.0 0.13 0.28 0.32 96 1004.2
20260831080712 63 0 1.0 5.0 0.12 0.28 0.29 95 1004.2
20260831080220 63 0 1.0 5.0 0.09 0.28 0.28 95 1004.2
20260831075713 63 348 2.0 4.0 0.09 0.18 0.27 95 1004.2
20260831075214 63 3 1.0 4.0 0.09 0.18 0.27 95 1004.2
20260831074713 63 80 0.0 5.0 0.09 0.18 0.27 95 1004.2
20260831074220 63 151 1.0 5.0 0.09 0.18 0.26 95 1004.2
20260831073220 63 47 2.0 4.0 0.07 0.18 0.23 95 1004.2
20260831072712 63 149 2.0 4.0 0.06 0.18 0.22 95 1004.3
20260831072214 63 196 1.0 6.0 0.06 0.18 0.22 95 1004.2
20260831071712 63 140 2.0 6.0 0.04 0.18 0.20 95 1004.3
20260831071214 63 28 2.0 4.0 0.02 0.18 0.19 95 1004.4
20260831070713 63 34 0.0 3.0 0.02 0.18 0.18 95 1004.4
20260831070213 63 37 1.0 4.0 0.05 0.18 0.18 95 1004.4
20260831065218 63 0 1.0 4.0 0.02 0.13 0.17 96 1004.4
20260831064712 63 125 2.0 4.0 0.02 0.13 0.17 96 1004.4
20260831064220 62 89 1.0 5.0 0.03 0.13 0.17 96 1004.5
20260831063713 62 231 2.0 5.0 0.03 0.13 0.17 96 1004.5
20260831063214 62 94 1.0 3.0 0.04 0.13 0.17 95 1004.4
20260831062712 62 65 1.0 3.0 0.04 0.13 0.17 95 1004.5
20260831061712 62 228 1.0 6.0 0.04 0.13 0.17 95 1004.5
20260831061227 62 285 0.0 3.0 0.04 0.13 0.17 95 1004.6
20260831060708 62 148 1.0 3.0 0.08 0.13 0.16 95 1004.5
20260831060201 62 62 2.0 3.0 0.05 0.13 0.13 95 1004.6
20260831055700 62 202 1.0 4.0 0.03 0.09 0.12 95 1004.6
20260831055200 62 188 1.0 4.0 0.03 0.09 0.11 95 1004.6
20260831054653 62 279 0.0 3.0 0.02 0.09 0.09 95 1004.6
20260831053650 62 197 0.0 4.0 0.03 0.09 0.09 95 1004.8
20260831053151 62 214 1.0 4.0 0.03 0.09 0.09 95 1004.8
20260831052649 62 217 2.0 4.0 0.03 0.09 0.09 95 1004.8
20260831052148 62 66 0.0 5.0 0.03 0.09 0.09 95 1004.8
20260831051648 62 27 1.0 6.0 0.05 0.09 0.09 95 1004.8
20260831050647 62 192 2.0 5.0 0.06 0.09 0.09 95 1004.8
20260831050147 62 131 1.0 3.0 0.06 0.09 0.09 95 1005.0
20260831045631 62 149 1.0 3.0 0.06 0.02 0.08 95 1005.0
20260831045131 62 127 1.0 5.0 0.00 0.02 0.08 95 1005.1
20260831044630 62 138 2.0 5.0 0.00 0.02 0.08 95 1005.1
20260831044130 62 171 2.0 5.0 0.00 0.02 0.07 95 1005.1
20260831043630 62 176 2.0 5.0 0.00 0.02 0.06 95 1005.2
20260831043131 62 99 1.0 4.0 0.00 0.02 0.06 95 1005.1
20260831042629 62 78 2.0 5.0 0.01 0.02 0.06 95 1005.2
20260831042131 62 35 1.0 5.0 0.01 0.02 0.06 95 1005.3
20260831041629 62 31 1.0 5.0 0.01 0.02 0.04 95 1005.3
20260831041126 62 37 1.0 4.0 0.01 0.02 0.03 95 1005.3
20260831040627 62 37 2.0 5.0 0.01 0.02 0.03 95 1005.4
20260831040129 62 80 1.0 5.0 0.01 0.02 0.02 95 1005.4
20260831034803 62 130 0.0 6.0 0.01 0.02 0.02 95 1005.5
20260831033803 62 107 0.0 2.0 0.01 0.02 0.02 95 1005.6
20260831033303 62 206 0.0 4.0 0.01 0.02 0.02 95 1005.8
20260831032801 62 165 1.0 4.0 0.01 0.02 0.02 95 1005.8
20260831032306 62 51 1.0 3.0 0.00 0.02 0.02 95 1005.8
20260831031803 62 178 1.0 3.0 0.00 0.02 0.02 95 1005.8
20260831031305 62 199 1.0 3.0 0.00 0.02 0.02 95 1005.9
20260831030803 62 185 0.0 3.0 0.00 0.02 0.02 95 1006.0
20260831030304 62 125 1.0 3.0 0.00 0.02 0.02 95 1006.0
20260831025809 62 52 0.0 3.0 0.00 0.02 0.02 95 1006.0
20260831025306 62 144 1.0 3.0 0.00 0.02 0.02 95 1006.0
20260831024807 62 157 1.0 3.0 0.00 0.02 0.02 95 1006.1
20260831024305 62 86 0.0 3.0 0.00 0.02 0.02 95 1006.1
20260831023809 62 11 0.0 2.0 0.00 0.02 0.02 95 1006.2
20260831023303 62 97 0.0 2.0 0.00 0.02 0.02 95 1006.2
20260831022306 62 161 1.0 3.0 0.00 0.02 0.02 95 1006.3
20260831021305 62 180 1.0 4.0 0.00 0.02 0.02 95 1006.4
20260831020806 62 41 1.0 4.0 0.00 0.02 0.02 95 1006.4
20260831020306 62 125 2.0 5.0 0.00 0.02 0.02 95 1006.5
20260831015805 62 102 2.0 5.0 0.00 0.02 0.02 95 1006.5
20260831015305 62 49 0.0 3.0 0.00 0.02 0.02 95 1006.6
20260831014806 62 172 0.0 2.0 0.00 0.02 0.02 95 1006.6
20260831014309 62 179 1.0 2.0 0.00 0.02 0.02 95 1006.5
20260831013808 62 192 1.0 3.0 0.00 0.02 0.02 95 1006.6
20260831013310 62 69 1.0 3.0 0.00 0.02 0.02 95 1006.7
20260831012803 62 292 0.0 4.0 0.00 0.02 0.02 95 1006.8
20260831011808 62 82 0.0 1.0 0.00 0.02 0.02 95 1006.8
20260831011306 62 117 0.0 1.0 0.00 0.03 0.02 95 1006.7
20260831010808 62 203 0.0 4.0 0.00 0.03 0.02 95 1006.9
20260831010305 62 168 1.0 4.0 0.00 0.03 0.02 95 1006.8
20260831005805 62 137 0.0 2.0 0.00 0.03 0.02 95 1006.8
20260831004802 62 141 0.0 2.0 0.00 0.05 0.02 95 1006.9
20260831004304 62 131 1.0 2.0 0.00 0.05 0.02 95 1006.9
20260831003303 62 100 0.0 2.0 0.00 0.05 0.02 95 1007.0
20260831002803 62 131 0.0 2.0 0.00 0.05 0.02 95 1007.1
20260831002306 62 118 0.0 3.0 0.00 0.05 0.02 95 1007.2
20260831001804 62 176 1.0 3.0 0.00 0.05 0.02 95 1007.1
20260831001306 62 168 0.0 3.0 0.00 0.05 0.02 95 1007.2
20260831000806 62 172 0.0 3.0 0.00 0.05 0.02 95 1007.1
20260831000305 62 151 1.0 3.0 0.00 0.06 0.02 95 1007.3
20260830235805 62 168 0.0 1.0 0.00 0.06 0.02 95 1007.4
20260830235306 62 123 0.0 1.0 0.00 0.06 0.02 95 1007.4
20260830234803 62 164 0.0 2.0 0.00 0.06 0.02 95 1007.5
20260830234302 62 125 0.0 2.0 0.00 0.07 0.02 95 1007.5
20260830233806 62 207 0.0 2.0 0.00 0.07 0.02 95 1007.6
20260830233306 62 186 1.0 2.0 0.00 0.07 0.02 95 1007.5
20260830232803 62 72 0.0 2.0 0.00 0.08 0.02 95 1007.5
20260830232305 62 183 1.0 3.0 0.00 0.09 0.02 95 1007.5
20260830231805 62 230 1.0 3.0 0.00 0.09 0.02 95 1007.6
20260830231302 62 121 0.0 4.0 0.00 0.09 0.02 95 1007.6
20260830230806 62 148 2.0 4.0 0.00 0.09 0.02 95 1007.6
20260830230306 62 121 2.0 4.0 0.00 0.10 0.02 95 1007.7
20260830225305 62 195 1.0 4.0 0.00 0.11 0.02 95 1007.7
20260830224803 62 121 1.0 4.0 0.00 0.12 0.02 95 1007.7
20260830224306 62 54 1.0 4.0 0.00 0.12 0.02 95 1007.8
20260830223809 62 145 2.0 4.0 0.01 0.12 0.02 95 1007.7
20260830223302 62 128 2.0 3.0 0.01 0.13 0.02 95 1007.7
20260830222806 62 149 2.0 3.0 0.01 0.13 0.02 95 1007.8
20260830222306 62 102 1.0 3.0 0.01 0.13 0.02 95 1007.8
20260830221806 62 118 1.0 2.0 0.01 0.13 0.02 95 1007.8
20260830221303 61 133 0.0 2.0 0.02 0.13 0.02 95 1007.9
20260830220803 61 51 0.0 2.0 0.02 0.13 0.02 95 1007.9
20260830220304 61 59 1.0 2.0 0.02 0.13 0.02 95 1008.0
20260830215807 61 124 0.0 1.0 0.02 0.12 0.02 94 1008.0
20260830215307 61 155 0.0 3.0 0.02 0.12 0.02 95 1008.0
20260830214302 61 202 0.0 3.0 0.02 0.12 0.02 95 1007.9
20260830213802 61 66 2.0 3.0 0.01 0.12 0.01 95 1008.1
20260830213306 61 82 1.0 3.0 0.01 0.12 0.01 95 1008.2
20260830212804 61 147 1.0 3.0 0.01 0.12 0.01 95 1008.2
20260830212306 61 214 1.0 2.0 0.01 0.12 0.01 94 1008.3
20260830211306 61 192 0.0 2.0 0.00 0.12 0.00 94 1008.3
20260830210813 61 62 0.0 1.0 0.00 0.12 0.00 94 1008.4
20260830205812 61 151 0.0 2.0 0.00 0.12 0.12 94 1008.5
20260830205305 61 78 0.0 1.0 0.00 0.12 0.12 94 1008.4
20260830204308 61 86 0.0 2.0 0.00 0.12 0.12 94 1008.6
20260830203306 60 113 0.0 2.0 0.00 0.12 0.12 94 1008.5
20260830202803 60 206 0.0 1.0 0.00 0.12 0.12 94 1008.5
20260830202306 60 234 0.0 1.0 0.00 0.12 0.12 94 1008.5
20260830201808 60 234 0.0 1.0 0.00 0.12 0.12 93 1008.5
20260830201317 60 234 0.0 0.0 0.00 0.12 0.12 93 1008.6
20260830200814 60 234 0.0 0.0 0.00 0.12 0.12 93 1008.5
20260830200312 60 234 0.0 0.0 0.00 0.12 0.12 94 1008.6
20260830195802 60 234 0.0 0.0 0.00 0.12 0.12 93 1008.5
20260830195323 60 234 0.0 0.0 0.00 0.12 0.12 93 1008.5
20260830194306 60 234 0.0 2.0 0.00 0.12 0.12 93 1008.6
20260830193803 60 99 0.0 0.0 0.00 0.12 0.12 93 1008.7
20260830193307 60 99 0.0 1.0 0.00 0.12 0.12 93 1008.7
20260830192803 60 99 0.0 1.0 0.00 0.12 0.12 93 1008.7
20260830192305 61 76 0.0 1.0 0.00 0.12 0.12 93 1008.7
20260830191807 60 76 0.0 1.0 0.00 0.12 0.12 93 1008.7
20260830191305 60 76 0.0 1.0 0.00 0.12 0.12 93 1008.6
20260830190804 60 76 0.0 1.0 0.00 0.12 0.12 93 1008.7
20260830190303 60 66 0.0 1.0 0.00 0.12 0.12 93 1008.7
20260830185803 60 66 0.0 1.0 0.00 0.12 0.12 93 1008.7
20260830185306 60 83 0.0 1.0 0.00 0.12 0.12 93 1008.8
20260830184802 60 54 0.0 1.0 0.00 0.12 0.12 93 1008.7
20260830184303 60 173 0.0 2.0 0.00 0.12 0.12 92 1008.8
20260830183804 60 97 0.0 2.0 0.00 0.12 0.12 92 1008.8
20260830183305 60 102 0.0 1.0 0.00 0.12 0.12 92 1008.7
20260830182806 60 103 0.0 1.0 0.00 0.12 0.12 92 1008.7
20260830182306 60 113 0.0 1.0 0.00 0.12 0.12 92 1008.7
20260830181802 60 85 0.0 2.0 0.00 0.12 0.12 92 1008.6
20260830181304 61 76 0.0 2.0 0.00 0.12 0.12 91 1008.7
20260830180806 61 140 0.0 0.0 0.00 0.12 0.12 91 1008.7
20260830180302 61 140 0.0 2.0 0.00 0.12 0.12 91 1008.6
20260830175806 61 140 0.0 2.0 0.00 0.12 0.12 91 1008.7
20260830174807 61 41 1.0 1.0 0.00 0.12 0.12 91 1008.6
20260830174305 62 39 0.0 1.0 0.00 0.12 0.12 91 1008.6
20260830173814 62 55 0.0 2.0 0.00 0.12 0.12 90 1008.6
20260830173312 62 55 0.0 2.0 0.00 0.12 0.12 90 1008.7
20260830172310 62 63 2.0 4.0 0.00 0.12 0.12 89 1008.6
20260830171807 62 48 0.0 1.0 0.00 0.12 0.12 89 1008.6
20260830171303 63 52 0.0 2.0 0.00 0.12 0.12 89 1008.5
20260830170810 63 52 0.0 2.0 0.00 0.12 0.12 89 1008.6
20260830165806 63 80 0.0 3.0 0.00 0.12 0.12 88 1008.5
20260830165305 64 80 0.0 3.0 0.00 0.12 0.12 88 1008.5